{"data":{"norad_id":65309,"epoch":"2026-05-25T03:34:45.071328Z","epoch_age_seconds":65593,"freshness":"FRESH","line1":"1 65309U 25187E   26145.14913277 -.00000088  00000+0  77851-4 0  9996","line2":"2 65309  50.0051 288.6337 0000667  80.5881 279.5066 13.29322816 36632","mean_motion":13.29322816,"eccentricity":6.67e-5,"inclination_deg":50.0051,"raan_deg":288.6337,"arg_perigee_deg":80.5881,"mean_anomaly_deg":279.5066,"bstar":7.7851e-5,"rev_number":3663,"period_min":108.32583197007,"perigee_km":1148.8165104055,"apogee_km":1149.8206729815,"semimajor_km":7527.4555916935,"source":"CELESTRAK","updated_at":"2026-05-25T13:38:05.299791Z"}}